This is the latest recevied weather packets stored in our database for station/object KCBM. If no packets are shown the sender has not sent any weather packets the latest 10 day(s).
| Time | Temp. | Humidity | Pressure | Rain* | Wind** | Luminosity | Snow |
|---|---|---|---|---|---|---|---|
| 1788571406 | 30.56° C | 52% | 1011.9 hPa | - | - | - | - |
| 1788570803 | 30.56° C | 52% | 1011.9 hPa | - | - | - | - |
| 1788570207 | 27.78° C | 74% | 1011.5 hPa | - | - | - | - |
| 1788569605 | 27.78° C | 74% | 1011.5 hPa | - | - | - | - |
| 1788569004 | 27.78° C | 74% | 1011.5 hPa | - | - | - | - |
| 1788568405 | 27.78° C | 74% | 1011.5 hPa | - | - | - | - |
| 1788567810 | 27.78° C | 74% | 1011.5 hPa | - | - | - | - |
| 1788567205 | 27.78° C | 74% | 1011.5 hPa | - | - | - | - |
| 1788566607 | 27.78° C | 69% | 1011.5 hPa | - | - | - | - |
| 1788566007 | 27.78° C | 69% | 1011.5 hPa | - | - | - | - |
| 1788565406 | 27.78° C | 74% | 1011.5 hPa | - | - | - | - |
| 1788564806 | 30° C | 62% | 1012.9 hPa | - | - | - | - |
| 1788564206 | 36.67° C | 37% | 1011.2 hPa | - | - | - | - |
| 1788563608 | 36.67° C | 37% | 1011.2 hPa | - | - | - | - |
| 1788563007 | 36.67° C | 37% | 1011.2 hPa | - | - | - | - |
| 1788562408 | 37.78° C | 37% | 1010.8 hPa | - | - | - | - |
| 1788561805 | 37.78° C | 37% | 1010.8 hPa | - | - | - | - |
| 1788561206 | 37.78° C | 37% | 1010.8 hPa | - | - | - | - |
| 1788560605 | 37.78° C | 37% | 1010.8 hPa | - | - | - | - |
| 1788560005 | 35.56° C | 41% | 1011.2 hPa | - | - | - | - |
| 1788559407 | 35.56° C | 41% | 1011.2 hPa | - | - | - | - |
| 1788558806 | 35.56° C | 41% | 1011.2 hPa | - | - | - | - |
| 1788558205 | 35.56° C | 41% | 1011.2 hPa | - | - | - | - |
| 1788557605 | 35.56° C | 41% | 1011.2 hPa | - | - | - | - |
| 1788557005 | 35.56° C | 41% | 1011.2 hPa | - | - | - | - |
* Rain since midnight (hover to see other rain measurements)
** Current wind speed in m/s (hover to see current wind gust speed)